Regina,

10:53 PM CST on February 21, 2017 (GMT -0600)
Regina

Weather History for CYQR - November, 2012

Change the Weather History Date:

Tuesday, November 27, 2012

  Actual Average Record
Temperature  
Mean Temperature 6 °F -  
Max Temperature 17 °F 18 °F 44 °F (1998)
Min Temperature -2 °F -0 °F -13 °F (2007)
Degree Days  
Heating Degree Days 58    
Moisture  
Dew Point 6 °F    
Average Humidity 92    
Maximum Humidity 100    
Minimum Humidity 85    
Precipitation  
Precipitation 0.00 in 0.02 in - ()
Sea Level Pressure  
Sea Level Pressure 30.24 in    
Wind  
Wind Speed 4 mph ()    
Max Wind Speed 10 mph    
Max Gust Speed -    
Visibility 8.4 miles    
Events Fog , Snow    
Averages and records for this station are not official NWS values.
T = Trace of Precipitation, MM = Missing Value Source: Averaged Metar Reports

Daily Weather History Graph

Daily Weather History Graph

Search for Another Location

Airport or City:

Trip Planner

Search our weather history database for the weather conditions in past years. The results will help you decide how hot, cold, wet, or windy it might be!

Date:

Astronomy

Nov. 27, 2012 Rise Set
Actual Time 8:32 AM CST 5:00 PM CST
Civil Twilight 7:55 AM CST 5:37 PM CST
Nautical Twilight 7:14 AM CST 6:18 PM CST
Astronomical Twilight 6:35 AM CST 6:57 PM CST
Moon 4:34 PM CST (11/27) 7:37 AM CST (11/27)
Length of Visible Light 9h 42m
Length of Day
8h 27m
Waxing Gibbous, 99% of the Moon is Illuminated
Nov 27
Waxing Gibbous
Nov 28
Full
Dec 6
Last Quarter
Dec 13
New
Dec 19
First Quarter

Hourly Weather History & Observations

Time (CST) Temp. Windchill Dew Point Humidity Pressure Visibility Wind Dir Wind Speed Gust Speed Precip Events Conditions
12:00 AM 8 °F - 6 °F 90% 30.21 in 3 mi North 5.8 mph - -  
12:00 AM 8.6 °F -1.3 °F 6.8 °F 92% 30.21 in 15.0 mi North 5.8 mph - N/A   Scattered Clouds
1:00 AM 6.8 °F - 5.0 °F 92% 30.20 in 10.0 mi Calm Calm - N/A   Scattered Clouds
2:00 AM 6.8 °F -0.1 °F 3.2 °F 85% 30.20 in 15.0 mi WNW 3.5 mph - N/A   Overcast
2:38 AM 6.8 °F -0.1 °F - N/A% - 2.0 mi West 3.5 mph - N/A   Mostly Cloudy
3:00 AM 6.8 °F - 5.0 °F 92% 30.19 in 3.0 mi NW 2.3 mph - N/A Snow Light Snow
4:00 AM 8.6 °F - 6.8 °F 92% 30.17 in 10.0 mi Calm Calm - N/A Snow Light Snow
5:00 AM 10.4 °F - 10.4 °F 100% 30.17 in 15.0 mi Calm Calm - N/A Snow Light Snow
5:15 AM 12.2 °F - - N/A% - 15.0 mi Calm Calm - N/A   Overcast
5:34 AM 12.2 °F 4.3 °F - N/A% - 15.0 mi NNW 4.6 mph - N/A   Overcast
6:00 AM 12 °F - 11 °F 91% 30.17 in 5 mi North 2.3 mph - -  
6:00 AM 12.2 °F - 10.4 °F 92% 30.17 in 15.0 mi North 2.3 mph - N/A   Overcast
7:00 AM 12.2 °F 6.1 °F 10.4 °F 92% 30.17 in 15.0 mi North 3.5 mph - N/A   Overcast
7:04 AM 12.2 °F 6.1 °F - N/A% - 15.0 mi NNW 3.5 mph - N/A Snow Light Snow
7:50 AM 12.2 °F 6.1 °F - N/A% - 2.0 mi NNW 3.5 mph - N/A Snow Light Snow
8:00 AM 12.2 °F 6.1 °F 10.4 °F 92% 30.19 in 1.0 mi NW 3.5 mph - N/A Snow Light Snow
8:08 AM 12.2 °F 4.3 °F - N/A% - 2.0 mi NW 4.6 mph - N/A Snow Light Snow
8:27 AM 12.2 °F 4.3 °F - N/A% - 1.0 mi NW 4.6 mph - N/A Snow Light Snow
8:37 AM 12.2 °F 1.7 °F - N/A% - 3.0 mi NNW 6.9 mph - N/A Snow Light Snow
9:00 AM 10.4 °F -2.4 °F 8.6 °F 92% 30.24 in 10.0 mi North 9.2 mph - N/A Snow Light Snow
9:40 AM 10.4 °F 4.0 °F - N/A% - 5.0 mi North 3.5 mph - N/A Snow Light Snow
10:00 AM 8.6 °F 2.0 °F 6.8 °F 92% 30.25 in 15.0 mi NNW 3.5 mph - N/A   Mostly Cloudy
11:00 AM 6.8 °F -3.5 °F 5.0 °F 92% 30.27 in 15.0 mi WNW 5.8 mph - N/A   Partly Cloudy
12:00 PM 8 °F - 6 °F 86% 30.29 in 6 mi NW 5.8 mph - -  
12:00 PM 6.8 °F -3.5 °F 5.0 °F 92% 30.29 in 15.0 mi NW 5.8 mph - N/A   Partly Cloudy
1:00 PM 8.6 °F -2.6 °F 6.8 °F 92% 30.28 in 15.0 mi NNW 6.9 mph - N/A   Partly Cloudy
2:00 PM 8.6 °F -3.7 °F 6.8 °F 92% 30.29 in 15.0 mi WNW 8.1 mph - N/A   Partly Cloudy
3:00 PM 8.6 °F - 5.0 °F 85% 30.29 in 15.0 mi WNW 2.3 mph - N/A   Mostly Cloudy
4:00 PM 5.0 °F -2.1 °F 3.2 °F 92% 30.29 in 15.0 mi West 3.5 mph - N/A   Partly Cloudy
5:00 PM 3.2 °F - 1.4 °F 92% 30.30 in 15.0 mi WSW 2.3 mph - N/A   Partly Cloudy
6:00 PM 1 °F - -1 °F 85% 30.30 in 3 mi WNW 2.3 mph - -  
6:00 PM 1.4 °F - -0.4 °F 92% 30.30 in 15.0 mi WNW 2.3 mph - N/A   Partly Cloudy
7:00 PM -2.2 °F -10.4 °F -2.2 °F 100% 30.30 in 10.0 mi South 3.5 mph - N/A   Mostly Cloudy
7:34 PM 3.2 °F -7.8 °F - N/A% - 15.0 mi South 5.8 mph - N/A   Mostly Cloudy
7:48 PM 5.0 °F -5.6 °F - N/A% - 15.0 mi South 5.8 mph - N/A   Overcast
8:00 PM 5.0 °F -5.6 °F 3.2 °F 92% 30.29 in 15.0 mi South 5.8 mph - N/A   Overcast
8:19 PM 6.8 °F -3.5 °F - N/A% - 15.0 mi South 5.8 mph - N/A   Overcast
8:34 PM 8.6 °F -1.3 °F - N/A% - 12.0 mi South 5.8 mph - N/A   Overcast
9:00 PM 8.6 °F 0.1 °F 6.8 °F 92% 30.27 in 3.0 mi South 4.6 mph - N/A   Overcast
9:08 PM 10.4 °F 2.2 °F - N/A% - 1.0 mi South 4.6 mph - N/A   Mist
9:11 PM 10.4 °F 4.0 °F - N/A% - 0.2 mi South 3.5 mph - N/A Fog Light Freezing Fog
9:32 PM 12.2 °F 6.1 °F - N/A% - 0.1 mi South 3.5 mph - N/A Fog Light Freezing Fog
9:40 PM 12.2 °F 6.1 °F - N/A% - 0.2 mi South 3.5 mph - N/A Fog Light Freezing Fog
10:00 PM 14.0 °F 6.5 °F 12.2 °F 93% 30.26 in 0.4 mi South 4.6 mph - N/A Fog Light Freezing Fog
10:10 PM 14.0 °F 6.5 °F - N/A% - 1.0 mi South 4.6 mph - N/A   Overcast
10:22 PM 14.0 °F 3.9 °F - N/A% - 3.0 mi SSE 6.9 mph - N/A   Overcast
10:31 PM 14.0 °F 3.9 °F - N/A% - 3.0 mi South 6.9 mph - N/A   Overcast
11:00 PM 15.8 °F 6.1 °F 14.0 °F 93% 30.25 in 3.0 mi SSE 6.9 mph - N/A   Overcast
11:27 PM 15.8 °F 5.1 °F - N/A% - 1.0 mi South 8.1 mph - N/A   Overcast
11:53 PM 17.6 °F 5.7 °F - N/A% - 0.4 mi South 10.4 mph - N/A Fog Light Freezing Fog